Location: 10033 Water Well
(34.0865°N, 106.8959°W)
Time: 16:30:20
(UTC+00:00)

Cosmos 1328 Rocket - Pass Details

Date: 13 January 2026
Orbit: 595 x 618 km, 82.5° (Epoch: 10 February)

Event Time Altitude Azimuth Distance (km) Brightness Sun altitude
Rises 00:58:51 0° 195° (SSW) 2,844 7.5 -8.5°
Reaches altitude 10° 01:01:04 10° 199° (SSW) 1,949 6.7 -8.9°
Maximum altitude 01:05:19 56° 278° (W) 727 4.3 -9.7°
Drops below altitude 10° 01:09:37 10° 357° (N) 1,976 6.0 -10.6°
Sets 01:11:53 0° 2° (N) 2,888 6.8 -11.0°
